SENTINEL-2B

Last updated on Thu Oct 30 2025 00:02:32 GMT+0000 (Coordinated Universal Time)

1 42063U 17013A 25302.50819431 .00000203 00000+0 93927-4 0 9998 2 42063 98.5671 15.5942 0000990 100.0966 260.0329 14.30822735451657
UTC large
Height (km)
Speed (km/s)
/
Latitude / Longitude
Inclination (degrees)
Orbital Period (minutes)
Azimuth
Elevation
Range (km)
Doppler Factor

Next 0 passes for location: London (51.5072 / 0.1276)

Sorry there are no passes over London.